Time,TemperatureF,DewpointF,PressureIn,WindDirection,WindDirectionDegrees,WindSpeedMPH,WindSpeedGustMPH,Humidity,HourlyPrecipIn,Conditions,Clouds,dailyrainin,SoftwareType,DateUTC
2013-04-26 00:01:00,37.6,28.5,29.79,SSW,203,3.1,3.1,69,0.00,,,0.00,WUHU216HW,2013-04-26 05:01:00,
2013-04-26 00:06:00,37.8,27.8,29.79,SSW,203,2.5,3.1,67,0.00,,,0.00,WUHU216HW,2013-04-26 05:06:00,
2013-04-26 00:11:00,37.6,27.6,29.79,SSW,203,2.5,3.1,67,0.00,,,0.00,WUHU216HW,2013-04-26 05:11:00,
2013-04-26 00:16:00,37.4,27.9,29.79,SSW,203,2.7,3.1,68,0.00,,,0.00,WUHU216HW,2013-04-26 05:16:00,
2013-04-26 00:21:00,37.4,27.9,29.79,SSW,203,2.0,3.1,68,0.00,,,0.00,WUHU216HW,2013-04-26 05:21:00,
2013-04-26 00:26:00,37.1,27.6,29.79,SSW,203,2.0,2.7,68,0.00,,,0.00,WUHU216HW,2013-04-26 05:26:00,
2013-04-26 00:31:00,36.9,27.4,29.79,SSW,203,1.8,2.5,68,0.00,,,0.00,WUHU216HW,2013-04-26 05:31:00,
2013-04-26 00:36:00,36.9,27.4,29.79,South,180,1.3,2.0,68,0.00,,,0.00,WUHU216HW,2013-04-26 05:36:00,
2013-04-26 00:41:00,36.9,27.0,29.79,SSW,203,1.8,2.0,67,0.00,,,0.00,WUHU216HW,2013-04-26 05:41:00,
2013-04-26 00:46:00,36.9,27.0,29.79,SSW,203,1.6,1.8,67,0.00,,,0.00,WUHU216HW,2013-04-26 05:46:00,
2013-04-26 00:51:00,36.9,27.4,29.79,South,180,1.8,2.2,68,0.00,,,0.00,WUHU216HW,2013-04-26 05:51:00,
2013-04-26 00:56:00,36.7,27.2,29.79,South,180,2.5,2.5,68,0.00,,,0.00,WUHU216HW,2013-04-26 05:56:00,
2013-04-26 01:01:00,36.7,27.6,29.79,South,180,3.4,3.4,69,0.00,,,0.00,WUHU216HW,2013-04-26 06:01:00,
2013-04-26 01:06:00,36.5,27.4,29.78,SSW,203,3.4,3.6,69,0.00,,,0.00,WUHU216HW,2013-04-26 06:06:00,
2013-04-26 01:11:00,36.5,27.4,29.78,South,180,2.7,3.6,69,0.00,,,0.00,WUHU216HW,2013-04-26 06:11:00,
2013-04-26 01:16:00,36.7,27.9,29.78,SSW,203,3.1,3.6,70,0.00,,,0.00,WUHU216HW,2013-04-26 06:16:00,
2013-04-26 01:21:00,36.7,27.9,29.78,SSW,203,3.1,3.6,70,0.00,,,0.00,WUHU216HW,2013-04-26 06:21:00,
2013-04-26 01:26:00,36.7,27.9,29.78,SSW,203,3.1,3.1,70,0.00,,,0.00,WUHU216HW,2013-04-26 06:26:00,
2013-04-26 01:31:00,36.7,27.9,29.77,SSW,203,3.1,3.1,70,0.00,,,0.00,WUHU216HW,2013-04-26 06:31:00,
2013-04-26 01:36:00,36.9,28.5,29.77,South,180,3.6,4.0,71,0.00,,,0.00,WUHU216HW,2013-04-26 06:36:00,
2013-04-26 01:41:00,37.1,28.6,29.76,South,180,4.3,4.3,71,0.00,,,0.00,WUHU216HW,2013-04-26 06:41:00,
2013-04-26 01:46:00,37.3,28.8,29.76,South,180,3.8,4.3,71,0.00,,,0.00,WUHU216HW,2013-04-26 06:46:00,
2013-04-26 01:51:00,37.4,29.3,29.77,SSW,203,4.7,4.7,72,0.00,,,0.00,WUHU216HW,2013-04-26 06:51:00,
2013-04-26 01:56:00,37.4,29.3,29.77,SSE,158,3.8,4.7,72,0.00,,,0.00,WUHU216HW,2013-04-26 06:56:00,
2013-04-26 02:01:00,37.4,29.6,29.77,SSW,203,4.9,4.9,73,0.00,,,0.00,WUHU216HW,2013-04-26 07:01:00,
2013-04-26 02:06:00,37.6,29.4,29.77,SSW,203,4.5,4.9,72,0.00,,,0.00,WUHU216HW,2013-04-26 07:06:00,
2013-04-26 02:11:00,37.8,29.6,29.77,SSW,203,4.0,4.9,72,0.00,,,0.00,WUHU216HW,2013-04-26 07:11:00,
2013-04-26 02:16:00,37.8,29.6,29.76,SSE,158,5.4,5.4,72,0.00,,,0.00,WUHU216HW,2013-04-26 07:16:00,
2013-04-26 02:21:00,38.0,29.8,29.77,SSW,203,4.0,5.4,72,0.00,,,0.00,WUHU216HW,2013-04-26 07:21:00,
2013-04-26 02:26:00,38.2,30.0,29.77,South,180,3.6,5.4,72,0.00,,,0.00,WUHU216HW,2013-04-26 07:26:00,
2013-04-26 02:31:00,38.2,30.0,29.76,SSE,158,6.0,6.0,72,0.00,,,0.00,WUHU216HW,2013-04-26 07:31:00,
2013-04-26 02:36:00,38.3,29.8,29.76,SSE,158,2.9,6.0,71,0.00,,,0.00,WUHU216HW,2013-04-26 07:36:00,
2013-04-26 02:41:00,38.3,30.1,29.77,South,180,5.4,6.0,72,0.00,,,0.00,WUHU216HW,2013-04-26 07:41:00,
2013-04-26 02:46:00,38.2,30.0,29.77,SSW,203,5.4,5.4,72,0.00,,,0.00,WUHU216HW,2013-04-26 07:46:00,
2013-04-26 02:51:00,38.2,30.0,29.76,SW,225,5.8,5.8,72,0.00,,,0.00,WUHU216HW,2013-04-26 07:51:00,
2013-04-26 02:56:00,38.2,29.6,29.77,SSW,203,5.4,5.8,71,0.00,,,0.00,WUHU216HW,2013-04-26 07:56:00,
2013-04-26 03:01:00,38.0,29.8,29.77,SSW,203,4.7,5.8,72,0.00,,,0.00,WUHU216HW,2013-04-26 08:01:00,
2013-04-26 03:06:00,38.0,30.1,29.77,SSW,203,6.3,6.3,73,0.00,,,0.00,WUHU216HW,2013-04-26 08:06:00,
2013-04-26 03:11:00,38.0,30.1,29.76,SSW,203,6.3,6.3,73,0.00,,,0.00,WUHU216HW,2013-04-26 08:11:00,
2013-04-26 03:16:00,38.0,30.1,29.76,SSW,203,6.3,6.3,73,0.00,,,0.00,WUHU216HW,2013-04-26 08:16:00,
2013-04-26 03:21:00,38.3,30.1,29.77,SSW,203,6.0,6.3,72,0.00,,,0.00,WUHU216HW,2013-04-26 08:21:00,
2013-04-26 03:26:00,38.3,29.8,29.77,SSW,203,5.8,6.3,71,0.00,,,0.00,WUHU216HW,2013-04-26 08:26:00,
2013-04-26 03:31:00,38.3,29.8,29.77,SSW,203,5.8,6.0,71,0.00,,,0.00,WUHU216HW,2013-04-26 08:31:00,
2013-04-26 03:36:00,38.3,29.8,29.77,SSW,203,5.8,5.8,71,0.00,,,0.00,WUHU216HW,2013-04-26 08:36:00,
2013-04-26 03:41:00,38.3,29.8,29.77,SSW,203,5.8,5.8,71,0.00,,,0.00,WUHU216HW,2013-04-26 08:41:00,
2013-04-26 03:46:00,38.3,29.4,29.77,SSW,203,4.7,5.8,70,0.00,,,0.00,WUHU216HW,2013-04-26 08:46:00,
2013-04-26 03:51:00,38.3,29.4,29.77,SSW,203,4.3,5.4,70,0.00,,,0.00,WUHU216HW,2013-04-26 08:51:00,
2013-04-26 03:56:00,38.3,29.1,29.77,South,180,4.7,5.4,69,0.00,,,0.00,WUHU216HW,2013-04-26 08:56:00,
2013-04-26 04:01:00,38.2,28.9,29.77,South,180,4.9,4.9,69,0.00,,,0.00,WUHU216HW,2013-04-26 09:01:00,
2013-04-26 04:06:00,38.2,28.9,29.77,SSW,203,4.0,4.9,69,0.00,,,0.00,WUHU216HW,2013-04-26 09:06:00,
2013-04-26 04:11:00,38.2,28.9,29.76,SSE,158,4.0,5.4,69,0.00,,,0.00,WUHU216HW,2013-04-26 09:11:00,
2013-04-26 04:16:00,38.2,28.9,29.77,SSE,158,4.0,5.4,69,0.00,,,0.00,WUHU216HW,2013-04-26 09:16:00,
2013-04-26 04:21:00,38.2,28.9,29.77,SSE,158,4.0,4.0,69,0.00,,,0.00,WUHU216HW,2013-04-26 09:21:00,
2013-04-26 04:26:00,38.2,28.9,29.77,SSE,158,4.5,4.5,69,0.00,,,0.00,WUHU216HW,2013-04-26 09:26:00,
2013-04-26 04:31:00,38.0,28.7,29.77,South,180,4.7,4.7,69,0.00,,,0.00,WUHU216HW,2013-04-26 09:31:00,
2013-04-26 04:36:00,38.0,28.7,29.77,SSE,158,4.7,4.7,69,0.00,,,0.00,WUHU216HW,2013-04-26 09:36:00,
2013-04-26 04:41:00,38.2,28.9,29.76,SSE,158,5.1,5.1,69,0.00,,,0.00,WUHU216HW,2013-04-26 09:41:00,
2013-04-26 04:46:00,38.2,28.9,29.77,SSW,203,2.9,5.1,69,0.00,,,0.00,WUHU216HW,2013-04-26 09:46:00,
2013-04-26 04:51:00,38.3,29.1,29.77,South,180,5.4,5.4,69,0.00,,,0.00,WUHU216HW,2013-04-26 09:51:00,
2013-04-26 04:56:00,38.3,29.1,29.77,South,180,5.6,6.0,69,0.00,,,0.00,WUHU216HW,2013-04-26 09:56:00,
2013-04-26 05:01:00,38.3,29.1,29.77,SSE,158,4.9,6.0,69,0.00,,,0.00,WUHU216HW,2013-04-26 10:01:00,
2013-04-26 05:06:00,38.5,29.3,29.77,SSE,158,3.8,5.6,69,0.00,,,0.00,WUHU216HW,2013-04-26 10:06:00,
2013-04-26 05:11:00,38.5,29.3,29.77,SSE,158,4.7,5.4,69,0.00,,,0.00,WUHU216HW,2013-04-26 10:11:00,
2013-04-26 05:16:00,38.7,29.0,29.77,SE,135,2.9,4.7,68,0.00,,,0.00,WUHU216HW,2013-04-26 10:16:00,
2013-04-26 05:21:00,38.9,29.2,29.76,SE,135,3.4,4.7,68,0.00,,,0.00,WUHU216HW,2013-04-26 10:21:00,
2013-04-26 05:26:00,38.9,29.2,29.76,SE,135,5.8,5.8,68,0.00,,,0.00,WUHU216HW,2013-04-26 10:26:00,
2013-04-26 05:31:00,38.9,29.2,29.76,SE,135,4.3,5.8,68,0.00,,,0.00,WUHU216HW,2013-04-26 10:31:00,
2013-04-26 05:36:00,38.9,29.2,29.77,SE,135,2.9,5.8,68,0.00,,,0.00,WUHU216HW,2013-04-26 10:36:00,
2013-04-26 05:41:00,39.1,29.4,29.78,SE,135,1.8,4.3,68,0.00,,,0.00,WUHU216HW,2013-04-26 10:41:00,
2013-04-26 05:46:00,39.1,29.4,29.78,SE,135,2.5,2.9,68,0.00,,,0.00,WUHU216HW,2013-04-26 10:46:00,
2013-04-26 05:51:00,39.1,29.4,29.78,SSE,158,4.3,4.3,68,0.00,,,0.00,WUHU216HW,2013-04-26 10:51:00,
2013-04-26 05:56:00,39.2,29.5,29.77,SE,135,4.9,4.9,68,0.00,,,0.00,WUHU216HW,2013-04-26 10:56:00,
2013-04-26 06:01:00,39.2,29.5,29.77,SSE,158,5.4,5.4,68,0.00,,,0.00,WUHU216HW,2013-04-26 11:01:00,
2013-04-26 06:06:00,39.2,29.5,29.78,South,180,5.8,5.8,68,0.00,,,0.00,WUHU216HW,2013-04-26 11:06:00,
2013-04-26 06:11:00,39.2,29.1,29.77,SE,135,6.9,6.9,67,0.00,,,0.00,WUHU216HW,2013-04-26 11:11:00,
2013-04-26 06:16:00,39.2,29.1,29.77,SSE,158,4.9,6.9,67,0.00,,,0.00,WUHU216HW,2013-04-26 11:16:00,
2013-04-26 06:21:00,39.4,29.7,29.77,SSE,158,5.6,6.9,68,0.00,,,0.00,WUHU216HW,2013-04-26 11:21:00,
2013-04-26 06:26:00,39.4,29.7,29.77,SSE,158,5.4,5.6,68,0.00,,,0.00,WUHU216HW,2013-04-26 11:26:00,
2013-04-26 06:31:00,39.4,29.7,29.77,SSW,203,5.6,5.6,68,0.00,,,0.00,WUHU216HW,2013-04-26 11:31:00,
2013-04-26 06:36:00,39.4,30.1,29.76,SE,135,8.5,8.5,69,0.00,,,0.00,WUHU216HW,2013-04-26 11:36:00,
2013-04-26 06:41:00,39.4,30.1,29.77,SSE,158,6.9,8.5,69,0.00,,,0.00,WUHU216HW,2013-04-26 11:41:00,
2013-04-26 06:46:00,39.4,29.7,29.78,SSW,203,7.6,8.5,68,0.00,,,0.00,WUHU216HW,2013-04-26 11:46:00,
2013-04-26 06:51:00,39.8,30.1,29.78,South,180,6.7,7.6,68,0.00,,,0.00,WUHU216HW,2013-04-26 11:51:00,
2013-04-26 06:56:00,39.8,30.1,29.78,SW,225,4.0,7.6,68,0.00,,,0.00,WUHU216HW,2013-04-26 11:56:00,
2013-04-26 07:01:00,40.1,30.0,29.78,SSE,158,5.4,6.7,67,0.00,,,0.00,WUHU216HW,2013-04-26 12:01:00,
2013-04-26 07:06:00,40.3,30.2,29.78,SSW,203,6.3,6.7,67,0.00,,,0.00,WUHU216HW,2013-04-26 12:06:00,
2013-04-26 07:11:00,40.3,30.2,29.78,SE,135,5.6,6.3,67,0.00,,,0.00,WUHU216HW,2013-04-26 12:11:00,
2013-04-26 07:16:00,40.7,30.5,29.79,SSE,158,4.7,6.3,67,0.00,,,0.00,WUHU216HW,2013-04-26 12:16:00,
2013-04-26 07:21:00,40.7,30.5,29.78,SE,135,5.1,6.3,67,0.00,,,0.00,WUHU216HW,2013-04-26 12:21:00,
2013-04-26 07:26:00,41.0,30.9,29.78,SSW,203,4.9,6.3,67,0.00,,,0.00,WUHU216HW,2013-04-26 12:26:00,
2013-04-26 07:31:00,41.2,31.1,29.78,SE,135,6.3,6.3,67,0.00,,,0.00,WUHU216HW,2013-04-26 12:31:00,
2013-04-26 07:36:00,41.6,31.4,29.77,SE,135,5.4,6.9,67,0.00,,,0.00,WUHU216HW,2013-04-26 12:36:00,
2013-04-26 07:41:00,41.8,31.6,29.77,SE,135,6.3,6.9,67,0.00,,,0.00,WUHU216HW,2013-04-26 12:41:00,
2013-04-26 07:46:00,41.8,31.2,29.77,SSE,158,6.3,6.9,66,0.00,,,0.00,WUHU216HW,2013-04-26 12:46:00,
2013-04-26 07:51:00,41.8,31.6,29.76,ESE,113,6.7,6.9,67,0.00,,,0.00,WUHU216HW,2013-04-26 12:51:00,
2013-04-26 07:56:00,42.1,32.0,29.77,SSE,158,6.9,6.9,67,0.00,,,0.00,WUHU216HW,2013-04-26 12:56:00,
2013-04-26 08:01:00,42.8,32.2,29.77,SSE,158,6.0,8.5,66,0.00,,,0.00,WUHU216HW,2013-04-26 13:01:00,
2013-04-26 08:06:00,43.4,32.4,29.76,SSE,158,5.6,8.5,65,0.00,,,0.00,WUHU216HW,2013-04-26 13:06:00,
2013-04-26 08:11:00,43.7,32.8,29.76,SSW,203,4.7,6.0,65,0.00,,,0.00,WUHU216HW,2013-04-26 13:11:00,
2013-04-26 08:16:00,44.5,33.0,29.76,SSE,158,9.8,9.8,64,0.00,,,0.00,WUHU216HW,2013-04-26 13:16:00,
2013-04-26 08:21:00,45.4,33.5,29.76,SSE,158,9.2,9.8,63,0.00,,,0.00,WUHU216HW,2013-04-26 13:21:00,
2013-04-26 08:26:00,45.9,34.0,29.76,SSE,158,13.0,13.0,63,0.00,,,0.00,WUHU216HW,2013-04-26 13:26:00,
2013-04-26 08:31:00,46.4,34.1,29.76,South,180,8.3,13.0,62,0.00,,,0.00,WUHU216HW,2013-04-26 13:31:00,
2013-04-26 08:36:00,46.8,34.0,29.76,SSE,158,11.2,13.0,61,0.00,,,0.00,WUHU216HW,2013-04-26 13:36:00,
2013-04-26 08:41:00,47.3,34.6,29.76,SSW,203,9.4,11.2,61,0.00,,,0.00,WUHU216HW,2013-04-26 13:41:00,
2013-04-26 08:46:00,47.9,35.1,29.76,SW,225,12.8,13.4,61,0.00,,,0.00,WUHU216HW,2013-04-26 13:46:00,
2013-04-26 08:51:00,49.0,35.7,29.76,SSE,158,12.8,13.4,60,0.00,,,0.00,WUHU216HW,2013-04-26 13:51:00,
2013-04-26 08:56:00,49.1,35.0,29.76,South,180,14.8,15.2,58,0.00,,,0.00,WUHU216HW,2013-04-26 13:56:00,
2013-04-26 09:01:00,49.3,35.2,29.75,SSW,203,15.4,15.4,58,0.00,,,0.00,WUHU216HW,2013-04-26 14:01:00,
2013-04-26 09:06:00,49.5,35.3,29.75,SSW,203,15.7,15.7,58,0.00,,,0.00,WUHU216HW,2013-04-26 14:06:00,
2013-04-26 09:11:00,49.9,36.1,29.75,South,180,12.5,15.7,59,0.00,,,0.00,WUHU216HW,2013-04-26 14:11:00,
2013-04-26 09:16:00,50.0,35.8,29.75,South,180,14.3,15.7,58,0.00,,,0.00,WUHU216HW,2013-04-26 14:16:00,
2013-04-26 09:21:00,50.8,36.5,29.75,South,180,8.3,14.3,58,0.00,,,0.00,WUHU216HW,2013-04-26 14:21:00,
2013-04-26 09:26:00,51.3,36.1,29.75,SSW,203,13.2,15.9,56,0.00,,,0.00,WUHU216HW,2013-04-26 14:26:00,
2013-04-26 09:31:00,51.5,36.2,29.74,South,180,13.6,18.6,56,0.00,,,0.00,WUHU216HW,2013-04-26 14:31:00,
2013-04-26 09:36:00,52.0,37.2,29.74,SSE,158,13.0,18.6,57,0.00,,,0.00,WUHU216HW,2013-04-26 14:36:00,
2013-04-26 09:41:00,52.6,37.3,29.74,SW,225,11.4,17.2,56,0.00,,,0.00,WUHU216HW,2013-04-26 14:41:00,
2013-04-26 09:46:00,52.6,37.3,29.74,South,180,11.0,13.0,56,0.00,,,0.00,WUHU216HW,2013-04-26 14:46:00,
2013-04-26 09:51:00,52.4,37.1,29.74,SSW,203,12.1,12.1,56,0.00,,,0.00,WUHU216HW,2013-04-26 14:51:00,
2013-04-26 09:56:00,52.7,37.5,29.74,South,180,6.9,12.3,56,0.00,,,0.00,WUHU216HW,2013-04-26 14:56:00,
2013-04-26 10:01:00,52.9,37.6,29.73,SSW,203,11.4,12.3,56,0.00,,,0.00,WUHU216HW,2013-04-26 15:01:00,
2013-04-26 10:06:00,53.3,37.0,29.73,SSW,203,12.1,12.1,54,0.00,,,0.00,WUHU216HW,2013-04-26 15:06:00,
2013-04-26 10:11:00,54.5,39.1,29.73,South,180,13.4,14.3,56,0.00,,,0.00,WUHU216HW,2013-04-26 15:11:00,
2013-04-26 10:16:00,54.9,38.0,29.73,South,180,18.6,18.6,53,0.00,,,0.00,WUHU216HW,2013-04-26 15:16:00,
2013-04-26 10:21:00,54.7,37.4,29.73,SSW,203,17.2,18.6,52,0.00,,,0.00,WUHU216HW,2013-04-26 15:21:00,
2013-04-26 10:26:00,55.1,38.2,29.73,SSW,203,13.9,18.6,53,0.00,,,0.00,WUHU216HW,2013-04-26 15:26:00,
2013-04-26 10:31:00,55.1,37.7,29.73,SSW,203,18.3,18.3,52,0.00,,,0.00,WUHU216HW,2013-04-26 15:31:00,
2013-04-26 10:36:00,55.1,38.2,29.73,SSW,203,14.3,18.3,53,0.00,,,0.00,WUHU216HW,2013-04-26 15:36:00,
2013-04-26 10:41:00,55.3,38.8,29.74,SW,225,16.8,18.3,54,0.00,,,0.00,WUHU216HW,2013-04-26 15:41:00,
2013-04-26 10:46:00,55.4,38.5,29.74,SW,225,11.2,16.8,53,0.00,,,0.00,WUHU216HW,2013-04-26 15:46:00,
2013-04-26 10:51:00,55.6,38.7,29.73,SSW,203,15.4,16.8,53,0.00,,,0.00,WUHU216HW,2013-04-26 15:51:00,
2013-04-26 10:56:00,55.8,38.3,29.74,SSW,203,12.3,15.4,52,0.00,,,0.00,WUHU216HW,2013-04-26 15:56:00,
2013-04-26 11:01:00,56.2,39.3,29.73,SSW,203,13.2,15.4,53,0.00,,,0.00,WUHU216HW,2013-04-26 16:01:00,
2013-04-26 11:06:00,56.9,40.0,29.73,SSW,203,14.3,14.8,53,0.00,,,0.00,WUHU216HW,2013-04-26 16:06:00,
2013-04-26 11:11:00,57.2,40.8,29.72,SSW,203,13.4,15.7,54,0.00,,,0.00,WUHU216HW,2013-04-26 16:11:00,
2013-04-26 11:16:00,57.8,41.2,29.72,SSW,203,14.3,15.7,54,0.00,,,0.00,WUHU216HW,2013-04-26 16:16:00,
2013-04-26 11:21:00,59.0,42.0,29.72,SW,225,15.7,15.7,53,0.00,,,0.00,WUHU216HW,2013-04-26 16:21:00,
2013-04-26 11:26:00,59.9,40.8,29.71,SW,225,15.4,15.7,49,0.00,,,0.00,WUHU216HW,2013-04-26 16:26:00,
2013-04-26 11:31:00,60.5,42.3,29.71,SSW,203,13.4,15.7,51,0.00,,,0.00,WUHU216HW,2013-04-26 16:31:00,
2013-04-26 11:36:00,61.4,42.0,29.70,SSW,203,11.9,15.4,49,0.00,,,0.00,WUHU216HW,2013-04-26 16:36:00,
2013-04-26 11:41:00,62.1,42.1,29.70,SSW,203,15.2,18.8,48,0.00,,,0.00,WUHU216HW,2013-04-26 16:41:00,
2013-04-26 11:46:00,62.5,42.4,29.70,SW,225,16.6,18.8,48,0.00,,,0.00,WUHU216HW,2013-04-26 16:46:00,
2013-04-26 11:51:00,62.6,43.2,29.70,SSW,203,15.9,16.6,49,0.00,,,0.00,WUHU216HW,2013-04-26 16:51:00,
2013-04-26 11:56:00,63.0,41.2,29.70,SW,225,17.0,17.0,45,0.00,,,0.00,WUHU216HW,2013-04-26 16:56:00,
2013-04-26 12:01:00,63.0,41.8,29.69,SSW,203,18.1,21.5,46,0.00,,,0.00,WUHU216HW,2013-04-26 17:01:00,
2013-04-26 12:06:00,63.2,42.0,29.70,SW,225,17.9,21.5,46,0.00,,,0.00,WUHU216HW,2013-04-26 17:06:00,
2013-04-26 12:11:00,63.4,41.5,29.69,SW,225,15.0,20.1,45,0.00,,,0.00,WUHU216HW,2013-04-26 17:11:00,
2013-04-26 12:16:00,64.1,42.1,29.69,SSW,203,21.0,21.0,45,0.00,,,0.00,WUHU216HW,2013-04-26 17:16:00,
2013-04-26 12:21:00,63.7,42.4,29.69,SSW,203,20.8,21.0,46,0.00,,,0.00,WUHU216HW,2013-04-26 17:21:00,
2013-04-26 12:26:00,64.1,42.1,29.69,SSW,203,18.3,21.0,45,0.00,,,0.00,WUHU216HW,2013-04-26 17:26:00,
2013-04-26 12:31:00,64.1,42.1,29.69,South,180,15.4,20.8,45,0.00,,,0.00,WUHU216HW,2013-04-26 17:31:00,
2013-04-26 12:36:00,64.3,42.3,29.69,SW,225,13.0,18.3,45,0.00,,,0.00,WUHU216HW,2013-04-26 17:36:00,
2013-04-26 12:41:00,64.4,42.5,29.69,SSW,203,15.2,15.4,45,0.00,,,0.00,WUHU216HW,2013-04-26 17:41:00,
2013-04-26 12:46:00,64.6,43.2,29.69,SSW,203,17.9,17.9,46,0.00,,,0.00,WUHU216HW,2013-04-26 17:46:00,
2013-04-26 12:51:00,65.0,43.0,29.68,SW,225,15.7,18.6,45,0.00,,,0.00,WUHU216HW,2013-04-26 17:51:00,
2013-04-26 12:56:00,65.2,42.0,29.68,SW,225,14.3,18.6,43,0.00,,,0.00,WUHU216HW,2013-04-26 17:56:00,
2013-04-26 13:01:00,65.0,43.6,29.68,SW,225,7.4,15.7,46,0.00,,,0.00,WUHU216HW,2013-04-26 18:01:00,
2013-04-26 13:06:00,65.2,43.2,29.68,SW,225,14.1,14.3,45,0.00,,,0.00,WUHU216HW,2013-04-26 18:06:00,
2013-04-26 13:11:00,65.2,42.6,29.68,SSW,203,15.4,15.7,44,0.00,,,0.00,WUHU216HW,2013-04-26 18:11:00,
2013-04-26 13:16:00,65.3,42.8,29.68,SSW,203,15.7,15.7,44,0.00,,,0.00,WUHU216HW,2013-04-26 18:16:00,
2013-04-26 13:21:00,65.9,43.3,29.68,SSW,203,22.4,22.4,44,0.00,,,0.00,WUHU216HW,2013-04-26 18:21:00,
2013-04-26 13:26:00,65.7,43.1,29.68,SSW,203,15.4,22.4,44,0.00,,,0.00,WUHU216HW,2013-04-26 18:26:00,
2013-04-26 13:31:00,65.7,43.1,29.68,SSW,203,15.7,22.4,44,0.00,,,0.00,WUHU216HW,2013-04-26 18:31:00,
2013-04-26 13:36:00,65.9,42.7,29.68,SW,225,15.4,16.3,43,0.00,,,0.00,WUHU216HW,2013-04-26 18:36:00,
2013-04-26 13:41:00,65.9,42.7,29.67,SW,225,15.0,16.3,43,0.00,,,0.00,WUHU216HW,2013-04-26 18:41:00,
2013-04-26 13:46:00,66.1,43.5,29.67,SW,225,17.2,17.2,44,0.00,,,0.00,WUHU216HW,2013-04-26 18:46:00,
2013-04-26 13:51:00,65.9,42.7,29.68,SSW,203,20.4,20.4,43,0.00,,,0.00,WUHU216HW,2013-04-26 18:51:00,
2013-04-26 13:56:00,66.2,44.2,29.67,SSW,203,12.8,20.4,45,0.00,,,0.00,WUHU216HW,2013-04-26 18:56:00,
2013-04-26 14:01:00,66.4,43.7,29.67,SW,225,16.3,20.4,44,0.00,,,0.00,WUHU216HW,2013-04-26 19:01:00,
2013-04-26 14:06:00,67.0,43.7,29.67,SW,225,15.2,18.6,43,0.00,,,0.00,WUHU216HW,2013-04-26 19:06:00,
2013-04-26 14:11:00,66.6,43.3,29.68,SSW,203,15.2,18.6,43,0.00,,,0.00,WUHU216HW,2013-04-26 19:11:00,
2013-04-26 14:16:00,67.0,44.3,29.67,South,180,12.1,17.2,44,0.00,,,0.00,WUHU216HW,2013-04-26 19:16:00,
2013-04-26 14:21:00,66.6,43.9,29.67,SW,225,16.3,16.3,44,0.00,,,0.00,WUHU216HW,2013-04-26 19:21:00,
2013-04-26 14:26:00,67.0,44.3,29.67,South,180,20.4,20.4,44,0.00,,,0.00,WUHU216HW,2013-04-26 19:26:00,
2013-04-26 14:31:00,67.3,44.0,29.67,SW,225,12.3,20.4,43,0.00,,,0.00,WUHU216HW,2013-04-26 19:31:00,
2013-04-26 14:36:00,65.9,43.3,29.67,SSW,203,13.9,20.4,44,0.00,,,0.00,WUHU216HW,2013-04-26 19:36:00,
2013-04-26 14:41:00,65.9,44.5,29.66,SW,225,20.1,20.1,46,0.00,,,0.00,WUHU216HW,2013-04-26 19:41:00,
2013-04-26 14:46:00,66.2,43.6,29.66,SW,225,13.4,20.1,44,0.00,,,0.00,WUHU216HW,2013-04-26 19:46:00,
2013-04-26 14:51:00,66.6,44.6,29.66,SW,225,16.3,20.8,45,0.00,,,0.00,WUHU216HW,2013-04-26 19:51:00,
2013-04-26 14:56:00,66.1,43.5,29.66,SW,225,17.4,20.8,44,0.00,,,0.00,WUHU216HW,2013-04-26 19:56:00,
2013-04-26 15:01:00,66.6,43.9,29.66,SSW,203,16.3,17.4,44,0.00,,,0.00,WUHU216HW,2013-04-26 20:01:00,
2013-04-26 15:06:00,66.8,44.1,29.66,SW,225,8.9,17.4,44,0.00,,,0.00,WUHU216HW,2013-04-26 20:06:00,
2013-04-26 15:11:00,67.0,44.8,29.66,SSW,203,11.2,16.3,45,0.00,,,0.00,WUHU216HW,2013-04-26 20:11:00,
2013-04-26 15:16:00,67.1,44.4,29.65,SSW,203,15.4,16.3,44,0.00,,,0.00,WUHU216HW,2013-04-26 20:16:00,
2013-04-26 15:21:00,67.0,44.3,29.66,SW,225,12.8,17.0,44,0.00,,,0.00,WUHU216HW,2013-04-26 20:21:00,
2013-04-26 15:26:00,67.1,44.4,29.66,SSW,203,16.3,19.0,44,0.00,,,0.00,WUHU216HW,2013-04-26 20:26:00,
2013-04-26 15:31:00,67.3,44.6,29.66,SW,225,17.2,19.0,44,0.00,,,0.00,WUHU216HW,2013-04-26 20:31:00,
2013-04-26 15:36:00,67.0,44.8,29.65,SW,225,17.7,18.3,45,0.00,,,0.00,WUHU216HW,2013-04-26 20:36:00,
2013-04-26 15:41:00,67.3,45.2,29.65,SW,225,15.0,18.3,45,0.00,,,0.00,WUHU216HW,2013-04-26 20:41:00,
2013-04-26 15:46:00,67.3,44.6,29.66,SW,225,16.1,17.7,44,0.00,,,0.00,WUHU216HW,2013-04-26 20:46:00,
2013-04-26 15:51:00,67.5,45.4,29.65,SW,225,18.3,18.3,45,0.00,,,0.00,WUHU216HW,2013-04-26 20:51:00,
2013-04-26 15:56:00,67.9,45.6,29.65,SW,225,15.0,18.3,45,0.00,,,0.00,WUHU216HW,2013-04-26 20:56:00,
2013-04-26 16:01:00,68.0,44.7,29.65,SSW,203,12.8,18.3,43,0.00,,,0.00,WUHU216HW,2013-04-26 21:01:00,
2013-04-26 16:06:00,67.9,44.5,29.65,SW,225,10.5,15.0,43,0.00,,,0.00,WUHU216HW,2013-04-26 21:06:00,
2013-04-26 16:11:00,67.9,45.1,29.65,SW,225,10.5,14.3,44,0.00,,,0.00,WUHU216HW,2013-04-26 21:11:00,
2013-04-26 16:16:00,68.0,45.2,29.65,SW,225,13.9,13.9,44,0.00,,,0.00,WUHU216HW,2013-04-26 21:16:00,
2013-04-26 16:21:00,67.3,45.2,29.65,SSW,203,9.8,13.9,45,0.00,,,0.00,WUHU216HW,2013-04-26 21:21:00,
2013-04-26 16:26:00,67.1,45.0,29.65,SW,225,15.7,15.7,45,0.00,,,0.00,WUHU216HW,2013-04-26 21:26:00,
2013-04-26 16:31:00,67.7,46.1,29.65,SSW,203,12.1,15.7,46,0.00,,,0.00,WUHU216HW,2013-04-26 21:31:00,
2013-04-26 16:36:00,67.7,46.1,29.65,South,180,10.1,15.7,46,0.00,,,0.00,WUHU216HW,2013-04-26 21:36:00,
2013-04-26 16:41:00,67.7,45.5,29.65,SW,225,15.0,15.7,45,0.00,,,0.00,WUHU216HW,2013-04-26 21:41:00,
2013-04-26 16:46:00,68.2,45.4,29.65,WSW,248,16.8,16.8,44,0.00,,,0.00,WUHU216HW,2013-04-26 21:46:00,
2013-04-26 16:51:00,68.4,45.5,29.65,SW,225,14.1,16.8,44,0.00,,,0.00,WUHU216HW,2013-04-26 21:51:00,
2013-04-26 16:56:00,68.2,46.0,29.65,SSW,203,15.2,16.8,45,0.00,,,0.00,WUHU216HW,2013-04-26 21:56:00,
2013-04-26 17:01:00,68.6,46.3,29.64,SW,225,15.7,15.7,45,0.00,,,0.00,WUHU216HW,2013-04-26 22:01:00,
2013-04-26 17:06:00,68.4,46.2,29.64,SW,225,12.3,15.7,45,0.00,,,0.00,WUHU216HW,2013-04-26 22:06:00,
2013-04-26 17:11:00,68.2,46.0,29.65,SW,225,13.4,15.7,45,0.00,,,0.00,WUHU216HW,2013-04-26 22:11:00,
2013-04-26 17:16:00,68.0,45.8,29.65,SSW,203,12.1,13.4,45,0.00,,,0.00,WUHU216HW,2013-04-26 22:16:00,
2013-04-26 17:21:00,67.9,46.3,29.65,SW,225,11.4,13.4,46,0.00,,,0.00,WUHU216HW,2013-04-26 22:21:00,
2013-04-26 17:26:00,67.5,45.9,29.65,SW,225,12.8,18.3,46,0.00,,,0.00,WUHU216HW,2013-04-26 22:26:00,
2013-04-26 17:31:00,67.7,46.1,29.65,SW,225,9.6,18.3,46,0.00,,,0.00,WUHU216HW,2013-04-26 22:31:00,
2013-04-26 17:36:00,67.7,46.1,29.65,SSW,203,9.4,12.8,46,0.00,,,0.00,WUHU216HW,2013-04-26 22:36:00,
2013-04-26 17:41:00,67.5,45.4,29.64,SSW,203,17.2,17.2,45,0.00,,,0.00,WUHU216HW,2013-04-26 22:41:00,
2013-04-26 17:46:00,67.1,45.6,29.65,SW,225,13.9,17.2,46,0.00,,,0.00,WUHU216HW,2013-04-26 22:46:00,
2013-04-26 17:51:00,67.3,46.4,29.65,SW,225,11.0,14.5,47,0.00,,,0.00,WUHU216HW,2013-04-26 22:51:00,
2013-04-26 17:56:00,66.6,45.1,29.65,South,180,12.8,13.9,46,0.00,,,0.00,WUHU216HW,2013-04-26 22:56:00,
2013-04-26 18:01:00,66.2,46.0,29.65,SW,225,17.2,17.2,48,0.00,,,0.00,WUHU216HW,2013-04-26 23:01:00,
2013-04-26 18:06:00,66.2,46.0,29.65,SW,225,9.8,17.2,48,0.00,,,0.00,WUHU216HW,2013-04-26 23:06:00,
2013-04-26 18:11:00,66.2,46.0,29.65,SSW,203,10.1,17.2,48,0.00,,,0.00,WUHU216HW,2013-04-26 23:11:00,
2013-04-26 18:16:00,66.1,45.8,29.65,SW,225,16.1,16.1,48,0.00,,,0.00,WUHU216HW,2013-04-26 23:16:00,
2013-04-26 18:21:00,65.9,45.6,29.65,SW,225,12.1,16.1,48,0.00,,,0.00,WUHU216HW,2013-04-26 23:21:00,
2013-04-26 18:26:00,65.5,45.3,29.65,SW,225,15.0,16.1,48,0.00,,,0.00,WUHU216HW,2013-04-26 23:26:00,
2013-04-26 18:31:00,65.2,45.6,29.65,SSW,203,14.8,15.0,49,0.00,,,0.00,WUHU216HW,2013-04-26 23:31:00,
2013-04-26 18:36:00,65.2,45.6,29.65,SW,225,12.1,15.0,49,0.00,,,0.00,WUHU216HW,2013-04-26 23:36:00,
2013-04-26 18:41:00,65.0,45.4,29.65,SW,225,10.3,15.7,49,0.00,,,0.00,WUHU216HW,2013-04-26 23:41:00,
2013-04-26 18:46:00,64.8,45.2,29.65,SW,225,18.8,18.8,49,0.00,,,0.00,WUHU216HW,2013-04-26 23:46:00,
2013-04-26 18:51:00,64.6,45.0,29.66,SSW,203,12.3,18.8,49,0.00,,,0.00,WUHU216HW,2013-04-26 23:51:00,
2013-04-26 18:54:00,64.4,44.8,29.66,WSW,248,9.4,18.8,49,0.00,,,0.00,WUHU216HW,2013-04-26 23:54:00,
2013-04-26 19:05:00,63.7,44.1,29.66,South,180,11.2,12.8,49,0.00,,,0.00,WUHU216HW,2013-04-27 00:05:00,
2013-04-26 19:10:00,63.4,44.4,29.67,South,180,10.7,12.8,50,0.00,,,0.00,WUHU216HW,2013-04-27 00:10:00,
2013-04-26 19:15:00,63.0,44.1,29.67,SSW,203,13.4,13.4,50,0.00,,,0.00,WUHU216HW,2013-04-27 00:15:00,
2013-04-26 19:20:00,62.8,44.4,29.67,South,180,8.3,13.4,51,0.00,,,0.00,WUHU216HW,2013-04-27 00:20:00,
2013-04-26 19:25:00,62.3,44.4,29.68,SW,225,10.7,13.4,52,0.00,,,0.00,WUHU216HW,2013-04-27 00:25:00,
2013-04-26 19:30:00,62.1,44.7,29.68,SSW,203,9.8,12.8,53,0.00,,,0.00,WUHU216HW,2013-04-27 00:30:00,
2013-04-26 19:35:00,61.9,44.6,29.68,SSW,203,12.8,12.8,53,0.00,,,0.00,WUHU216HW,2013-04-27 00:35:00,
2013-04-26 19:40:00,61.6,44.7,29.68,SSW,203,12.8,13.9,54,0.00,,,0.00,WUHU216HW,2013-04-27 00:40:00,
2013-04-26 19:45:00,61.2,44.4,29.68,SW,225,11.6,13.9,54,0.00,,,0.00,WUHU216HW,2013-04-27 00:45:00,
2013-04-26 19:50:00,60.8,44.6,29.69,SW,225,12.1,12.8,55,0.00,,,0.00,WUHU216HW,2013-04-27 00:50:00,
2013-04-26 19:55:00,60.5,44.7,29.69,SW,225,12.1,12.8,56,0.00,,,0.00,WUHU216HW,2013-04-27 00:55:00,
2013-04-26 20:00:00,60.3,44.0,29.69,SSW,203,9.2,12.8,55,0.00,,,0.00,WUHU216HW,2013-04-27 01:00:00,
2013-04-26 20:05:00,60.1,44.4,29.69,SW,225,14.1,14.1,56,0.00,,,0.00,WUHU216HW,2013-04-27 01:05:00,
2013-04-26 20:10:00,60.1,44.4,29.69,SSW,203,13.0,14.1,56,0.00,,,0.00,WUHU216HW,2013-04-27 01:10:00,
2013-04-26 20:15:00,59.8,44.5,29.70,SW,225,8.7,14.1,57,0.00,,,0.00,WUHU216HW,2013-04-27 01:15:00,
2013-04-26 20:20:00,59.6,44.3,29.70,SW,225,12.1,13.0,57,0.00,,,0.00,WUHU216HW,2013-04-27 01:20:00,
2013-04-26 20:25:00,59.2,44.5,29.70,SSW,203,12.5,12.5,58,0.00,,,0.00,WUHU216HW,2013-04-27 01:25:00,
2013-04-26 20:30:00,59.0,44.3,29.71,SW,225,9.6,12.8,58,0.00,,,0.00,WUHU216HW,2013-04-27 01:30:00,
2013-04-26 20:35:00,58.7,43.9,29.71,SW,225,12.1,12.8,58,0.00,,,0.00,WUHU216HW,2013-04-27 01:35:00,
2013-04-26 20:40:00,58.5,43.7,29.71,SW,225,8.7,12.1,58,0.00,,,0.00,WUHU216HW,2013-04-27 01:40:00,
2013-04-26 20:45:00,58.3,44.1,29.71,SW,225,6.9,12.1,59,0.00,,,0.00,WUHU216HW,2013-04-27 01:45:00,
2013-04-26 20:50:00,57.8,44.0,29.71,SW,225,13.4,13.4,60,0.00,,,0.00,WUHU216HW,2013-04-27 01:50:00,
2013-04-26 20:55:00,57.6,44.3,29.72,SSW,203,10.5,13.4,61,0.00,,,0.00,WUHU216HW,2013-04-27 01:55:00,
2013-04-26 21:00:00,57.4,44.6,29.71,SSW,203,12.1,13.4,62,0.00,,,0.00,WUHU216HW,2013-04-27 02:00:00,
2013-04-26 21:05:00,57.2,44.7,29.72,SSW,203,13.2,13.2,63,0.00,,,0.00,WUHU216HW,2013-04-27 02:05:00,
2013-04-26 21:10:00,57.1,44.6,29.72,SSW,203,10.5,13.2,63,0.00,,,0.00,WUHU216HW,2013-04-27 02:10:00,
2013-04-26 21:15:00,57.1,45.0,29.72,South,180,10.5,13.2,64,0.00,,,0.00,WUHU216HW,2013-04-27 02:15:00,
2013-04-26 21:20:00,56.9,44.8,29.72,SSW,203,10.3,12.3,64,0.00,,,0.00,WUHU216HW,2013-04-27 02:20:00,
2013-04-26 21:25:00,56.9,44.8,29.72,SSW,203,12.8,12.8,64,0.00,,,0.00,WUHU216HW,2013-04-27 02:25:00,
2013-04-26 21:30:00,56.7,44.7,29.72,SW,225,12.1,12.8,64,0.00,,,0.00,WUHU216HW,2013-04-27 02:30:00,
2013-04-26 21:35:00,56.5,44.8,29.72,SSW,203,13.4,13.4,65,0.00,,,0.00,WUHU216HW,2013-04-27 02:35:00,
2013-04-26 21:40:00,56.5,44.8,29.73,South,180,11.2,13.4,65,0.00,,,0.00,WUHU216HW,2013-04-27 02:40:00,
2013-04-26 21:45:00,56.3,45.1,29.73,SW,225,10.7,13.4,66,0.00,,,0.00,WUHU216HW,2013-04-27 02:45:00,
2013-04-26 21:50:00,56.2,44.9,29.73,SSW,203,10.7,11.2,66,0.00,,,0.00,WUHU216HW,2013-04-27 02:50:00,
2013-04-26 21:55:00,56.0,45.2,29.73,SSW,203,11.2,11.2,67,0.00,,,0.00,WUHU216HW,2013-04-27 02:55:00,
2013-04-26 22:00:00,55.8,45.0,29.73,SSW,203,7.2,11.9,67,0.00,,,0.00,WUHU216HW,2013-04-27 03:00:00,
2013-04-26 22:05:00,55.8,45.0,29.73,South,180,9.2,11.9,67,0.00,,,0.00,WUHU216HW,2013-04-27 03:05:00,
2013-04-26 22:10:00,55.6,45.3,29.73,SSW,203,9.2,9.2,68,0.00,,,0.00,WUHU216HW,2013-04-27 03:10:00,
2013-04-26 22:15:00,55.6,45.3,29.73,SW,225,8.3,12.5,68,0.00,,,0.00,WUHU216HW,2013-04-27 03:15:00,
2013-04-26 22:20:00,55.4,45.1,29.73,SSW,203,6.7,12.5,68,0.00,,,0.00,WUHU216HW,2013-04-27 03:20:00,
2013-04-26 22:25:00,55.3,45.3,29.73,SSW,203,10.3,10.3,69,0.00,,,0.00,WUHU216HW,2013-04-27 03:25:00,
2013-04-26 22:30:00,55.1,45.1,29.73,SW,225,7.6,10.3,69,0.00,,,0.00,WUHU216HW,2013-04-27 03:30:00,
2013-04-26 22:35:00,55.1,45.1,29.73,SSW,203,8.5,8.5,69,0.00,,,0.00,WUHU216HW,2013-04-27 03:35:00,
2013-04-26 22:40:00,54.7,45.2,29.74,WSW,248,5.6,8.5,70,0.00,,,0.00,WUHU216HW,2013-04-27 03:40:00,
2013-04-26 22:45:00,54.5,45.0,29.74,SSW,203,6.9,8.5,70,0.00,,,0.00,WUHU216HW,2013-04-27 03:45:00,
2013-04-26 22:50:00,54.4,44.8,29.74,SSW,203,8.3,8.3,70,0.00,,,0.00,WUHU216HW,2013-04-27 03:50:00,
2013-04-26 22:55:00,54.4,44.8,29.73,SSW,203,8.5,9.8,70,0.00,,,0.00,WUHU216HW,2013-04-27 03:55:00,
2013-04-26 23:00:00,54.4,45.2,29.73,SSW,203,6.3,9.8,71,0.00,,,0.00,WUHU216HW,2013-04-27 04:00:00,
2013-04-26 23:01:00,54.4,45.2,29.73,SSW,203,6.3,9.8,71,0.00,,,0.00,WUHU216HW,2013-04-27 04:01:00,
2013-04-26 23:06:00,54.2,45.0,29.73,SSW,203,8.5,8.5,71,0.00,,,0.00,WUHU216HW,2013-04-27 04:06:00,
2013-04-26 23:11:00,54.0,44.8,29.73,SSW,203,5.8,8.5,71,0.00,,,0.00,WUHU216HW,2013-04-27 04:11:00,
2013-04-26 23:16:00,53.8,45.0,29.73,SSW,203,6.9,8.5,72,0.00,,,0.00,WUHU216HW,2013-04-27 04:16:00,
2013-04-26 23:21:00,53.6,45.2,29.73,SSW,203,8.1,8.5,73,0.00,,,0.00,WUHU216HW,2013-04-27 04:21:00,
2013-04-26 23:26:00,53.5,45.0,29.73,South,180,9.4,9.4,73,0.00,,,0.00,WUHU216HW,2013-04-27 04:26:00,
2013-04-26 23:31:00,53.5,45.0,29.73,SSW,203,9.2,9.4,73,0.00,,,0.00,WUHU216HW,2013-04-27 04:31:00,
2013-04-26 23:36:00,53.5,45.0,29.73,SW,225,7.4,9.4,73,0.00,,,0.00,WUHU216HW,2013-04-27 04:36:00,
2013-04-26 23:41:00,53.3,44.5,29.73,SW,225,7.6,9.2,72,0.00,,,0.00,WUHU216HW,2013-04-27 04:41:00,
2013-04-26 23:46:00,53.1,44.3,29.73,SSW,203,6.3,8.9,72,0.00,,,0.00,WUHU216HW,2013-04-27 04:46:00,
2013-04-26 23:51:00,52.9,44.6,29.73,SW,225,7.8,9.2,73,0.00,,,0.00,WUHU216HW,2013-04-27 04:51:00,
2013-04-26 23:56:00,52.7,44.4,29.73,SSW,203,6.9,9.2,73,0.00,,,0.00,WUHU216HW,2013-04-27 04:56:00,